Weather History for Canton, GA

Change the Weather History Date:

Friday, March 28, 2014

  Actual Average (KGVL) Record (KGVL)
Temperature  
Mean Temperature 54 °F 56 °F  
Max Temperature 59 °F 66 °F 84 °F (1945)
Min Temperature 50 °F 46 °F 25 °F (1937)
Degree Days  
Heating Degree Days 10 10  
Month to date heating degree days 361  
Since 1 July heating degree days 2825  
Cooling Degree Days 0 0  
Month to date cooling degree days 0  
Year to date cooling degree days 0  
Growing Degree Days 4 (Base 50)    
Moisture  
Dew Point 49 °F    
Average Humidity 82    
Maximum Humidity 94    
Minimum Humidity 33    
Precipitation  
Precipitation 0.00 in 0.15 in 1.69 in (1946)
Month to date precipitation 4.97  
Year to date precipitation 14.87  
Sea Level Pressure  
Sea Level Pressure 30.11 in    
Wind  
Wind Speed 5 mph (East)    
Max Wind Speed 10 mph    
Max Gust Speed 17 mph    
Visibility 7 miles    
Events Rain    
T = Trace of Precipitation, MM = Missing Value Source: NWS Daily Summary

Daily Weather History Graph

Daily Weather History Graph

Search for Another Location

Airport:

Trip Planner

Search our weather history database for the weather conditions in past years. The results will help you decide how hot, cold, wet, or windy it might be!

Date:

Astronomy

Mar. 28, 2014 Rise Set
Actual Time 7:30 AM EDT 7:55 PM EDT
Civil Twilight 7:05 AM EDT 8:20 PM EDT
Nautical Twilight 6:35 AM EDT 8:50 PM EDT
Astronomical Twilight 6:05 AM EDT 9:20 PM EDT
Moon 5:54 AM EDT (3/28) 5:55 PM EDT (3/28)
Length of Visible Light 13h 15m
Length of Day
12h 25m
Waning Crescent, 6% of the Moon is Illuminated
Mar 28
Waning Crescent
Mar 30
New
Apr 7
First Quarter
Apr 15
Full
Apr 22
Last Quarter

Hourly Weather History & Observations

Time (EDT) Temp. Dew Point Humidity Pressure Visibility Wind Dir Wind Speed Gust Speed Precip Events Conditions
12:15 AM 57.2 °F 28.4 °F 33% 30.17 in 10.0 mi East 6.9 mph - N/A   Overcast
12:35 AM 57.2 °F 30.2 °F 36% 30.16 in 10.0 mi East 6.9 mph - N/A   Overcast
12:55 AM 57.2 °F 32.0 °F 38% 30.17 in 10.0 mi ESE 8.1 mph - N/A   Overcast
1:15 AM 57.2 °F 33.8 °F 41% 30.17 in 10.0 mi ESE 5.8 mph - N/A   Mostly Cloudy
1:35 AM 57.2 °F 35.6 °F 44% 30.15 in 10.0 mi SE 8.1 mph - N/A   Mostly Cloudy
1:55 AM 57.2 °F 37.4 °F 48% 30.17 in 10.0 mi ESE 5.8 mph - N/A   Mostly Cloudy
2:15 AM 57.2 °F 37.4 °F 48% 30.18 in 10.0 mi Calm Calm - N/A   Overcast
2:35 AM 57.2 °F 37.4 °F 48% 30.19 in 10.0 mi Calm Calm - N/A   Overcast
2:55 AM 55.4 °F 39.2 °F 54% 30.19 in 10.0 mi ESE 4.6 mph - N/A Rain Light Rain
3:15 AM 55.4 °F 41.0 °F 58% 30.19 in 10.0 mi SE 4.6 mph - N/A Rain Light Rain
3:35 AM 53.6 °F 42.8 °F 67% 30.17 in 10.0 mi ESE 5.8 mph - N/A   Drizzle
3:55 AM 53.6 °F 44.6 °F 72% 30.16 in 7.0 mi SE 4.6 mph - N/A Rain Rain
4:15 AM 53.6 °F 46.4 °F 77% 30.16 in 10.0 mi SE 3.5 mph - N/A Rain Rain
4:35 AM 51.8 °F 46.4 °F 82% 30.13 in 7.0 mi SE 4.6 mph - N/A Rain Rain
4:55 AM 51.8 °F 46.4 °F 82% 30.13 in 7.0 mi ENE 3.5 mph - N/A Rain Light Rain
5:15 AM 51.8 °F 46.4 °F 82% 30.15 in 2.0 mi NNE 3.5 mph - N/A Rain Heavy Rain
5:35 AM 50.0 °F 46.4 °F 87% 30.16 in 1.8 mi Calm Calm - N/A Rain Heavy Rain
5:55 AM 50.0 °F 46.4 °F 87% 30.14 in 4.0 mi ESE 8.1 mph - N/A Rain Rain
6:15 AM 50.0 °F 46.4 °F 87% 30.16 in 2.5 mi ESE 5.8 mph - N/A Rain Heavy Rain
6:35 AM 50.0 °F 46.4 °F 87% 30.16 in 2.5 mi SE 3.5 mph - N/A Rain Heavy Rain
6:55 AM 50.0 °F 46.4 °F 87% 30.15 in 2.5 mi ESE 5.8 mph - N/A Rain Heavy Rain
7:15 AM 50.0 °F 46.4 °F 87% 30.14 in 3.0 mi ESE 8.1 mph - N/A Rain Rain
7:35 AM 50.0 °F 46.4 °F 87% 30.13 in 3.0 mi East 5.8 mph - N/A Rain Light Rain
7:55 AM 50.0 °F 48.2 °F 94% 30.10 in 4.0 mi East 10.4 mph 17.3 mph N/A Rain Light Rain
8:15 AM 51.8 °F 48.2 °F 88% 30.14 in 7.0 mi Calm Calm - N/A   Drizzle
8:35 AM 51.8 °F 50.0 °F 94% 30.14 in 7.0 mi SSE 4.6 mph - N/A Rain Light Rain
8:55 AM 51.8 °F 50.0 °F 94% 30.12 in 4.0 mi SE 6.9 mph - N/A Rain Light Rain
9:15 AM 53.6 °F 50.0 °F 88% 30.13 in 5.0 mi SE 3.5 mph - N/A   Drizzle
9:35 AM 53.6 °F 51.8 °F 94% 30.14 in 7.0 mi SSE 3.5 mph - N/A   Drizzle
9:55 AM 53.6 °F 51.8 °F 94% 30.13 in 7.0 mi SSE 6.9 mph - N/A   Overcast
10:15 AM 53.6 °F 51.8 °F 94% 30.13 in 7.0 mi SE 4.6 mph - N/A   Overcast
10:35 AM 53.6 °F 51.8 °F 94% 30.14 in 5.0 mi East 3.5 mph - N/A   Overcast
10:55 AM 53.6 °F 51.8 °F 94% 30.13 in 5.0 mi SE 5.8 mph - N/A   Overcast
11:15 AM 55.4 °F 51.8 °F 88% 30.14 in 5.0 mi Calm Calm - N/A   Overcast
11:35 AM 55.4 °F 51.8 °F 88% 30.15 in 7.0 mi Calm Calm - N/A   Overcast
11:55 AM 55.4 °F 51.8 °F 88% 30.15 in 5.0 mi Calm Calm - N/A Rain Rain
12:15 PM 55.4 °F 53.6 °F 94% 30.15 in 7.0 mi Calm Calm - N/A   Overcast
12:35 PM 55.4 °F 53.6 °F 94% 30.14 in 7.0 mi SE 4.6 mph - N/A Rain Light Rain
12:55 PM 57.2 °F 53.6 °F 88% 30.13 in 10.0 mi ESE 3.5 mph - N/A   Overcast
1:15 PM 59.0 °F 53.6 °F 82% 30.13 in 10.0 mi ESE 6.9 mph - N/A   Overcast
1:35 PM 59.0 °F 53.6 °F 82% 30.11 in 10.0 mi East 4.6 mph - N/A   Overcast
1:55 PM 59.0 °F 53.6 °F 82% 30.11 in 10.0 mi SE 4.6 mph - N/A   Overcast
2:15 PM 59.0 °F 53.6 °F 82% 30.09 in 10.0 mi SE 5.8 mph - N/A   Overcast
2:35 PM 59.0 °F 53.6 °F 82% 30.08 in 10.0 mi SE 8.1 mph - N/A   Overcast
2:55 PM 59.0 °F 53.6 °F 82% 30.09 in 10.0 mi Calm Calm - N/A   Overcast
3:15 PM 59.0 °F 53.6 °F 82% 30.08 in 10.0 mi Calm Calm - N/A   Overcast
3:35 PM 59.0 °F 53.6 °F 82% 30.08 in 10.0 mi Calm Calm - N/A   Overcast
3:55 PM 59.0 °F 53.6 °F 82% 30.07 in 10.0 mi Calm Calm - N/A   Overcast
4:15 PM 59.0 °F 53.6 °F 82% 30.04 in 10.0 mi East 3.5 mph - N/A   Overcast
4:35 PM 59.0 °F 53.6 °F 82% 30.05 in 10.0 mi East 4.6 mph - N/A   Overcast
4:55 PM 59.0 °F 53.6 °F 82% 30.05 in 10.0 mi NE 6.9 mph - N/A   Overcast
5:15 PM 59.0 °F 51.8 °F 77% 30.05 in 7.0 mi ENE 9.2 mph - N/A   Overcast
5:35 PM 57.2 °F 51.8 °F 82% 30.06 in 5.0 mi NE 6.9 mph - N/A   Haze
5:55 PM 57.2 °F 53.6 °F 88% 30.06 in 5.0 mi ENE 5.8 mph - N/A   Overcast
6:15 PM 57.2 °F 53.6 °F 88% 30.06 in 5.0 mi ENE 4.6 mph - N/A   Overcast
6:35 PM 57.2 °F 53.6 °F 88% 30.05 in 5.0 mi ENE 4.6 mph - N/A   Overcast
6:55 PM 57.2 °F 53.6 °F 88% 30.05 in 5.0 mi ENE 9.2 mph - N/A   Overcast
7:15 PM 57.2 °F 53.6 °F 88% 30.05 in 5.0 mi ENE 5.8 mph - N/A   Overcast
7:35 PM 57.2 °F 53.6 °F 88% 30.05 in 5.0 mi East 4.6 mph - N/A   Overcast
7:55 PM 57.2 °F 53.6 °F 88% 30.05 in 7.0 mi East 4.6 mph - N/A   Overcast
8:15 PM 55.4 °F 53.6 °F 94% 30.05 in 7.0 mi ENE 5.8 mph - N/A   Overcast
8:35 PM 55.4 °F 53.6 °F 94% 30.05 in 5.0 mi ENE 6.9 mph - N/A   Overcast
8:55 PM 55.4 °F 53.6 °F 94% 30.06 in 5.0 mi ENE 3.5 mph - N/A   Overcast
9:15 PM 55.4 °F 53.6 °F 94% 30.06 in 2.5 mi East 3.5 mph - N/A   Overcast
9:35 PM 55.4 °F 53.6 °F 94% 30.05 in 3.0 mi ENE 6.9 mph - N/A   Overcast
9:55 PM 55.4 °F 53.6 °F 94% 30.05 in 4.0 mi East 5.8 mph - N/A   Overcast
10:15 PM 55.4 °F 53.6 °F 94% 30.04 in 2.5 mi East 4.6 mph - N/A   Overcast
10:35 PM 55.4 °F 53.6 °F 94% 30.06 in 5.0 mi ENE 4.6 mph - N/A   Overcast
10:55 PM 55.4 °F 53.6 °F 94% 30.06 in 5.0 mi East 4.6 mph - N/A   Overcast
11:15 PM 55.4 °F 53.6 °F 94% 30.06 in 2.0 mi ENE 5.8 mph - N/A   Overcast
11:35 PM 55.4 °F 53.6 °F 94% 30.05 in 1.5 mi ENE 6.9 mph - N/A Rain Light Rain
11:55 PM 55.4 °F 53.6 °F 94% 30.05 in 1.8 mi ENE 4.6 mph - N/A   Overcast